CZ-2D R/B

Last updated on Sun Sep 20 2026 00:02:08 GMT+0000 (Coordinated Universal Time)

1 28738U 05024B 26262.04025443 .00074273 00000+0 36351-3 0 9992 2 28738 97.3423 286.9499 0003270 73.8198 286.3430 15.82072251170112
UTC large
Height (km)
Speed (km/s)
/
Latitude / Longitude
Inclination (degrees)
Orbital Period (minutes)
Azimuth
Elevation
Range (km)
Doppler Factor

Next 0 passes for location: London (51.5072 / 0.1276)

No passes found over London.
CZ-2D R/B